Orbital Elements at Epoch 2459200.5 (2020-Dec-17.0) TDB
Reference: JPL 34 (heliocentric ecliptic J2000)
Element | Value | Uncertainty (1-sigma) | Units |
e | .1435315789003615 | 3.8503e-08 | |
a | 3.136269740256449 | 1.6099e-08 | au |
q | 2.686115992580014 | 1.2066e-07 | au |
i | 12.28907787010106 | 3.3028e-06 | deg |
node | 102.460508750777 | 2.0333e-05 | deg |
peri | 278.3863673031474 | 2.4025e-05 | deg |
M | 22.21121506810445 | 1.1481e-05 | deg |
tp | 2459075.333428839119 (2020-Aug-13.83342884) | 6.4965e-05 | TDB |
period | 2028.703314057945 5.55 | 1.562e-05 4.277e-08 | d yr |
n | .1774532517916109 | 1.3663e-09 | deg/d |
Q | 3.586423487932884 | 1.8409e-08 | au |
|
| | Orbit Determination Parameters
Additional Information
|